This is the latest recevied weather packets stored in our database for station/object PP5FMM-13. If no packets are shown the sender has not sent any weather packets the latest 10 day(s).
| Time | Temp. | Humidity | Pressure | Rain* | Wind** | Luminosity | Snow |
|---|---|---|---|---|---|---|---|
| 1777655730 | 28.33° C | 78% | 1016 hPa | - | - | - | - |
| 1777655430 | 28.89° C | 79% | 1016.1 hPa | - | - | - | - |
| 1777655130 | 28.89° C | 79% | 1016 hPa | - | - | - | - |
| 1777654830 | 28.89° C | 79% | 1016.1 hPa | - | - | - | - |
| 1777654531 | 28.89° C | 80% | 1016.1 hPa | - | - | - | - |
| 1777654230 | 28.89° C | 81% | 1016.2 hPa | - | - | - | - |
| 1777653930 | 28.33° C | 83% | 1016.2 hPa | - | - | - | - |
| 1777653630 | 28.33° C | 83% | 1016.3 hPa | - | - | - | - |
| 1777653330 | 27.78° C | 81% | 1016.4 hPa | - | - | - | - |
| 1777653031 | 28.33° C | 82% | 1016.5 hPa | - | - | - | - |
| 1777652730 | 28.33° C | 82% | 1016.5 hPa | - | - | - | - |
| 1777652430 | 27.78° C | 82% | 1016.6 hPa | - | - | - | - |
| 1777652130 | 28.33° C | 85% | 1016.7 hPa | - | - | - | - |
| 1777651830 | 27.78° C | 84% | 1016.8 hPa | - | - | - | - |
| 1777651530 | 27.78° C | 86% | 1016.9 hPa | - | - | - | - |
| 1777651230 | 27.78° C | 85% | 1016.9 hPa | - | - | - | - |
| 1777650930 | 28.33° C | 86% | 1016.9 hPa | - | - | - | - |
| 1777650630 | 27.78° C | 85% | 1017.1 hPa | - | - | - | - |
| 1777650330 | 28.33° C | 88% | 1017.3 hPa | - | - | - | - |
| 1777650030 | 27.78° C | 87% | 1017.1 hPa | - | - | - | - |
| 1777649730 | 27.78° C | 89% | 1017.1 hPa | - | - | - | - |
| 1777649430 | 27.22° C | 89% | 1017.3 hPa | - | - | - | - |
| 1777649130 | 27.22° C | 90% | 1017.4 hPa | - | - | - | - |
| 1777648830 | 27.22° C | 91% | 1017.5 hPa | - | - | - | - |
| 1777648530 | 26.67° C | 92% | 1017.6 hPa | - | - | - | - |
* Rain since midnight (hover to see other rain measurements)
** Current wind speed in m/s (hover to see current wind gust speed)